Regional Weather Roundup
Issued by NWS

Home | Current Version | Previous Version | Graphics & Text | Print | Product List | Glossary On
Versions: 1 2 3 4 5 6 7 8 9 10 11 12 13 14 15 16 17 18 19 20 21 22 23 24 25 26 27 28 29 30 31 32 33 34 35 36 37 38 39 40 41 42 43 44 45 46 47 48 49 50
000
ASUS43 KIND 270409
RWRIN

WEATHER ROUNDUP FOR INDIANA
NATIONAL WEATHER SERVICE INDIANAPOLIS IN
1200 AM EDT FRI MAR 27 2015

NOTE: "FAIR" INDICATES FEW OR NO CLOUDS BELOW 12,000 FEET WITH NO
SIGNIFICANT WEATHER AND/OR OBSTRUCTIONS TO VISIBILITY.

* - STATION DOES NOT REPORT WEATHER SUCH AS PRECIPITATION OR FOG.

+ - STATION NOT QUALITY CONTROLLED BY THE NATIONAL WEATHER SERVICE.
    USE DATA WITH CAUTION...ESPECIALLY DEWPOINT AND RELATIVE
    HUMIDITY OBSERVATIONS.

INZ001>003-010>013-019-020-270500-
NORTHWEST INDIANA

CITY           SKY/WX    TMP DP  RH WIND       PRES   REMARKS
GARY /AIRPORT/ CLOUDY    35  23  62 N14       30.07R WCI  26
KNOX *+          N/A     32  16  51 N8        30.03S WCI  25
LA PORTE +     CLOUDY    34  27  77 N10G16    30.04R WCI  26
MICHIGAN CITY+ CLOUDY    32  23  69 N6        30.05S WCI  26
MONTICELLO +   CLEAR     32  26  79 N7        30.03R WCI  26
RENSSELAER +   PTCLDY    32  30  93 N3        30.04S
VALPARAISO     CLOUDY    33  25  72 N7        30.05R WCI  27

$$

LMZ046-743>745-270500-
SOUTHERN LAKE MICHIGAN

STATION/POSITION TIME  TEMP WIND        PRES
                       AIR  DIR/SP/G
                 (UTC) (F)  (DEG/KT/KT) (MB)
BURNS HARBOR     0400   34  360/ 14/ 19 1017.9S
MICHIGAN CITY    0400   32  350/ 14/ 16   N/A

$$

INZ004-005-014>016-021>024-270500-
NORTH CENTRAL INDIANA

CITY           SKY/WX    TMP DP  RH WIND       PRES   REMARKS
GOSHEN         CLOUDY    32  23  69 NW14      30.00S WCI  22
LOGANSPORT +   PTCLDY    32  27  80 N8        30.03R WCI  25
PERU/GRISSOM   PTCLDY    33  25  74 N12       29.99S WCI  24
ROCHESTER +    MOCLDY    34  28  80 NW6       30.02S WCI  29
SOUTH BEND     CLOUDY    33  25  72 NW9       30.03S WCI  25
WARSAW +       MOCLDY    32  27  80 NW7       30.01S WCI  26

$$

INZ006>009-017-018-025>027-270500-
NORTHEAST INDIANA

CITY           SKY/WX    TMP DP  RH WIND       PRES   REMARKS
ANGOLA *+      CLOUDY    32  23  69 NW9       29.97S WCI  24
AUBURN +       PTCLDY    32  25  74 NW8       29.98S WCI  25
FORT WAYNE     PTCLDY    32  24  72 NW8       29.99R WCI  25
HUNTINGTON +   CLEAR     32  22  66 N7        29.99R WCI  26

$$

INZ028-029-035-036-043>045-051>053-270500-
WEST CENTRAL INDIANA

CITY           SKY/WX    TMP DP  RH WIND       PRES   REMARKS
CRAWFORDSVL +  CLEAR     32  20  62 MISG      30.00F
GREENCASTLE +  CLEAR     34  23  64 N5        30.02R WCI  30
LAFAYETTE      CLEAR     32  24  72 N5        30.02S WCI  27
TERRE HAUTE    CLEAR     37  27  67 N5        30.02R

$$

INZ030>032-037>040-046>048-054>057-064-065-270500-
CENTRAL INDIANA

CITY           SKY/WX    TMP DP  RH WIND       PRES   REMARKS
CP ATTERBURY + MOCLDY    36  30  80 NW7       30.01S
FISHERS *+     MOCLDY    34  30  86 CALM      30.01R
FRANKFORT +    CLEAR     34  28  77 NW9       30.02S WCI  26
GREENWOOD *+   CLEAR     37  25  60 NW7       30.01R
INDIANAPOLIS   PTCLDY    35  26  69 N9        29.99R WCI  28
-EAGLE CREEK   CLEAR     36  27  69 N9        30.00R
KOKOMO *+        N/A     34  25  69 N10       30.01R WCI  26
MARION +       CLOUDY    33  26  73 N6        30.01R WCI  28
MT COMFORT *+  MOCLDY    34  25  69 N7        30.01R WCI  28
SHELBYVILLE    MOCLDY    36  28  73 N6        30.00R
ZIONSVILLE +   CLEAR     33  27  77 N6        30.02R WCI  28

$$

INZ033-034-041-042-049-050-058-059-270500-
EAST CENTRAL INDIANA

CITY           SKY/WX    TMP DP  RH WIND       PRES   REMARKS
MUNCIE         CLOUDY    35  27  72 N6        30.00R WCI  30

$$

INZ060-061-067>069-081>083-085>088-270500-
SOUTHWEST INDIANA

CITY           SKY/WX    TMP DP  RH WIND       PRES   REMARKS
EVANSVILLE     CLEAR     36  32  85 W5        30.04S
HUNTINGBURG *+ CLEAR     36  30  80 CALM      30.03S
WASHINGTON +   CLEAR     37  31  82 NW6       30.02S

$$

INZ062-063-066-070>080-084-089>092-270500-
SOUTH CENTRAL AND SOUTHEAST INDIANA

CITY           SKY/WX    TMP DP  RH WIND       PRES   REMARKS
BEDFORD +      MOCLDY    37  32  81 CALM      30.01S
BLOOMINGTON    CLEAR     37  28  70 CALM      30.01R
NORTH VERNON + CLEAR     37  32  81 W5        30.00R
SEYMOUR +      CLEAR     36  32  87 W5        30.01S

$$



USA.gov is the U.S. government's official web portal to all federal, state and local government web resources and services.